This is the latest recevied weather packets stored in our database for station/object 9A3XK-13. If no packets are shown the sender has not sent any weather packets the latest 10 day(s).
| Time | Temp. | Humidity | Pressure | Rain* | Wind** | Luminosity | Snow |
|---|---|---|---|---|---|---|---|
| 1777644316 | 19.44° C | 30% | 1024.3 hPa | 0 mm | - | 613 W/m² | - |
| 1777643715 | 19.44° C | 31% | 1024.4 hPa | 0 mm | - | 647 W/m² | - |
| 1777643115 | 18.89° C | 30% | 1024.4 hPa | 0 mm | - | 666 W/m² | - |
| 1777642816 | 18.89° C | 31% | 1024.5 hPa | 0 mm | - | 672 W/m² | - |
| 1777642515 | 19.44° C | 30% | 1024.6 hPa | 0 mm | - | 684 W/m² | - |
| 1777642215 | 19.44° C | 30% | 1024.8 hPa | 0 mm | - | 699 W/m² | - |
| 1777641915 | 19.44° C | 31% | 1024.7 hPa | 0 mm | - | 718 W/m² | - |
| 1777641315 | 19.44° C | 31% | 1024.7 hPa | 0 mm | - | 744 W/m² | - |
| 1777641015 | 18.89° C | 31% | 1024.8 hPa | 0 mm | - | 759 W/m² | - |
| 1777638918 | 18.33° C | 32% | 1025.1 hPa | 0 mm | - | 789 W/m² | - |
| 1777638315 | 18.33° C | 32% | 1025.1 hPa | 0 mm | - | 805 W/m² | - |
| 1777638017 | 18.33° C | 31% | 1025.2 hPa | 0 mm | - | 816 W/m² | - |
| 1777637717 | 18.33° C | 31% | 1025.4 hPa | 0 mm | - | 813 W/m² | - |
| 1777637117 | 17.78° C | 32% | 1025.3 hPa | 0 mm | - | 828 W/m² | - |
| 1777636817 | 17.78° C | 31% | 1025.3 hPa | 0 mm | - | 826 W/m² | - |
| 1777635617 | 17.78° C | 34% | 1025.5 hPa | 0 mm | - | 830 W/m² | - |
| 1777635317 | 17.78° C | 33% | 1025.5 hPa | 0 mm | - | 843 W/m² | - |
| 1777635017 | 17.22° C | 32% | 1025.6 hPa | 0 mm | - | 843 W/m² | - |
| 1777634717 | 17.22° C | 32% | 1025.8 hPa | 0 mm | - | 847 W/m² | - |
| 1777634417 | 17.22° C | 31% | 1025.9 hPa | 0 mm | - | 855 W/m² | - |
| 1777634117 | 17.78° C | 32% | 1025.8 hPa | 0 mm | - | 856 W/m² | - |
| 1777633817 | 17.22° C | 33% | 1025.8 hPa | 0 mm | - | 845 W/m² | - |
| 1777633516 | 17.22° C | 32% | 1025.8 hPa | 0 mm | - | 851 W/m² | - |
| 1777633217 | 17.22° C | 32% | 1025.9 hPa | 0 mm | - | 856 W/m² | - |
| 1777632917 | 17.22° C | 32% | 1026 hPa | 0 mm | - | 855 W/m² | - |
* Rain latest hour (hover to see other rain measurements)
** Current wind speed in m/s (hover to see current wind gust speed)